Location: ??????????
(48.4699°N, 37.9573°E)
Time: 13:06:26
(UTC+00:00)

Cosmos 2026 Rocket - Pass Details

Date: 20 January 2021
Orbit: 940 x 1000 km, 82.9° (Epoch: 26 February)

Event Time Altitude Azimuth Distance (km) Brightness Sun altitude
Rises 16:02:47 0° 165° (SSE) 3,601 6.9 -18.6°
Reaches altitude 10° 16:05:22 10° 159° (SSE) 2,666 6.2 -19.0°
Maximum altitude 16:11:04 44° 89° (E) 1,309 4.2 -20.0°
Drops below altitude 10° 16:16:52 10° 20° (NNE) 2,719 6.1 -20.9°
Sets 16:19:31 0° 14° (NNE) 3,679 6.8 -21.4°
